TimeEST,TemperatureF,Dew PointF,Humidity,Sea Level PressureIn,VisibilityMPH,Wind Direction,Wind SpeedMPH,Gust SpeedMPH,PrecipitationIn,Events,Conditions,WindDirDegrees,DateUTC
12:58 AM,58.6,55.4,89,30.02,10.0,WNW,5.8,-,N/A,,Partly Cloudy,290,2014-01-16 05:58:00
1:58 AM,58.1,55.4,91,30.01,10.0,West,3.5,-,N/A,,Scattered Clouds,270,2014-01-16 06:58:00
2:58 AM,57.7,55.8,93,30.00,10.0,Calm,Calm,-,N/A,,Overcast,0,2014-01-16 07:58:00
3:58 AM,57.2,57.2,100,29.99,10.0,SSE,2.3,-,N/A,,Mostly Cloudy,150,2014-01-16 08:58:00
4:58 AM,57.4,57.4,100,29.99,10.0,WNW,2.3,-,N/A,,Mostly Cloudy,290,2014-01-16 09:58:00
5:18 AM,59.0,59.0,100,30.00,10.0,WNW,8.1,-,N/A,,Mostly Cloudy,290,2014-01-16 10:18:00
5:43 AM,59.0,59.0,100,30.00,10.0,NW,12.7,-,N/A,,Overcast,310,2014-01-16 10:43:00
5:58 AM,59.5,58.3,96,30.01,10.0,NW,13.8,-,N/A,,Overcast,320,2014-01-16 10:58:00
6:58 AM,57.6,50.7,78,30.03,10.0,NNW,18.4,-,N/A,,Overcast,340,2014-01-16 11:58:00
7:58 AM,55.2,47.5,75,30.08,10.0,NNW,15.0,-,N/A,,Clear,330,2014-01-16 12:58:00
8:58 AM,54.7,48.0,78,30.10,10.0,NNW,17.3,-,N/A,,Partly Cloudy,330,2014-01-16 13:58:00
9:58 AM,54.9,45.9,72,30.12,10.0,NNW,18.4,-,N/A,,Partly Cloudy,330,2014-01-16 14:58:00
10:58 AM,58.1,43.9,59,30.13,10.0,NNW,17.3,26.5,N/A,,Clear,330,2014-01-16 15:58:00
11:58 AM,59.9,41.4,50,30.11,10.0,NW,20.7,31.1,N/A,,Clear,320,2014-01-16 16:58:00
12:58 PM,61.7,40.1,45,30.08,10.0,NW,16.1,26.5,N/A,,Clear,320,2014-01-16 17:58:00
1:58 PM,62.1,36.3,38,30.08,10.0,NNW,16.1,25.3,N/A,,Clear,330,2014-01-16 18:58:00
2:58 PM,61.2,32.4,34,30.08,10.0,NNW,16.1,25.3,N/A,,Clear,330,2014-01-16 19:58:00
3:58 PM,61.0,30.2,31,30.07,10.0,NNW,16.1,25.3,N/A,,Clear,330,2014-01-16 20:58:00
4:58 PM,59.4,30.9,34,30.09,10.0,NNW,15.0,23.0,N/A,,Clear,330,2014-01-16 21:58:00
5:58 PM,56.7,31.8,39,30.11,10.0,NNW,10.4,-,N/A,,Clear,330,2014-01-16 22:58:00
6:58 PM,52.5,34.5,50,30.13,10.0,NNW,4.6,-,N/A,,Clear,340,2014-01-16 23:58:00
7:58 PM,50.9,35.8,56,30.15,10.0,NW,2.3,-,N/A,,Clear,310,2014-01-17 00:58:00
8:58 PM,49.3,38.5,66,30.16,10.0,Calm,Calm,-,N/A,,Clear,0,2014-01-17 01:58:00
9:58 PM,45.5,44.6,97,30.18,10.0,South,2.3,-,N/A,,Clear,190,2014-01-17 02:58:00
10:58 PM,45.7,42.8,90,30.18,10.0,WNW,1.2,-,N/A,,Clear,300,2014-01-17 03:58:00
11:58 PM,46.4,41.0,81,30.17,10.0,NW,5.8,-,N/A,,Clear,320,2014-01-17 04:58:00